{"data":{"norad_id":47657,"intl_designator":"2021-012AP","name":"STARLINK-2041","alt_names":[],"object_type":"PAYLOAD","status":"ACTIVE","operator":null,"country":"US","launch_date":"2021-02-16","launch_site_code":"AFETR","launch_vehicle":null,"mission":null,"orbit_class":"UNKNOWN","rcs_meters":null,"size_class":null,"mass_kg":null,"dimensions":null,"purposes":["comms"],"wikipedia_slug":null,"has_3d_model":false,"image_url":null,"decayed_at":null,"tle_current":{"epoch":"2026-05-25T00:29:56.013216Z","epoch_age_seconds":69728,"freshness":"FRESH","line1":"1 47657U 21012AP  26145.02078719  .00095320  00000+0  67147-3 0  9993","line2":"2 47657  53.1576  52.9454 0002680 151.9934 208.1230 15.73350093292011","mean_motion":15.73350093,"eccentricity":0.000268,"inclination_deg":53.1576,"raan_deg":52.9454,"arg_perigee_deg":151.9934,"mean_anomaly_deg":208.123,"bstar":0.00067147,"rev_number":29201,"period_min":91.524448780136,"perigee_km":347.52732460127,"apogee_km":351.13324706648,"semimajor_km":6727.4672858339,"source":"CELESTRAK","updated_at":"2026-05-25T13:38:16.563062Z"}}}